TimeEST,TemperatureF,Dew PointF,Humidity,Sea Level PressureIn,VisibilityMPH,Wind Direction,Wind SpeedMPH,Gust SpeedMPH,PrecipitationIn,Events,Conditions,WindDirDegrees,DateUTC
12:54 AM,36.0,19.9,52,30.40,10.0,South,4.6,-,N/A,,Partly Cloudy,190,2013-11-26 05:54:00
1:54 AM,36.0,19.9,52,30.39,10.0,SSW,4.6,-,N/A,,Clear,200,2013-11-26 06:54:00
2:54 AM,36.0,21.0,55,30.38,10.0,SSW,4.6,-,N/A,,Clear,210,2013-11-26 07:54:00
3:54 AM,37.0,21.9,54,30.35,10.0,South,3.5,-,N/A,,Clear,180,2013-11-26 08:54:00
4:54 AM,37.0,23.0,57,30.35,10.0,SSW,3.5,-,N/A,,Overcast,200,2013-11-26 09:54:00
5:54 AM,36.0,23.0,59,30.32,10.0,Calm,Calm,-,N/A,,Mostly Cloudy,0,2013-11-26 10:54:00
6:54 AM,37.0,24.1,59,30.33,10.0,Calm,Calm,-,N/A,,Overcast,0,2013-11-26 11:54:00
7:54 AM,39.0,26.1,60,30.34,10.0,Calm,Calm,-,N/A,,Overcast,0,2013-11-26 12:54:00
8:54 AM,41.0,26.1,55,30.33,10.0,Calm,Calm,-,N/A,,Overcast,0,2013-11-26 13:54:00
9:54 AM,43.0,28.0,56,30.30,10.0,East,4.6,-,N/A,,Overcast,100,2013-11-26 14:54:00
10:54 AM,45.0,26.1,48,30.28,10.0,ENE,4.6,-,N/A,,Overcast,70,2013-11-26 15:54:00
11:54 AM,48.0,24.1,39,30.24,10.0,East,4.6,-,N/A,,Overcast,90,2013-11-26 16:54:00
12:54 PM,48.0,21.0,34,30.21,10.0,East,8.1,-,N/A,,Overcast,80,2013-11-26 17:54:00
1:54 PM,48.0,25.0,41,30.19,10.0,East,5.8,-,0.00,,Overcast,90,2013-11-26 18:54:00
2:54 PM,45.0,36.0,71,30.16,10.0,East,4.6,-,0.00,Rain,Light Rain,100,2013-11-26 19:54:00
3:54 PM,44.1,39.0,82,30.12,5.0,East,6.9,-,0.03,Rain,Rain,80,2013-11-26 20:54:00
4:54 PM,46.9,44.1,90,30.06,4.0,East,6.9,-,0.04,Rain,Light Rain,100,2013-11-26 21:54:00
5:54 PM,51.1,48.0,89,30.00,9.0,ESE,9.2,-,0.01,Rain,Light Rain,110,2013-11-26 22:54:00
6:54 PM,55.9,52.0,87,29.96,8.0,ESE,13.8,-,0.00,Rain,Light Rain,120,2013-11-26 23:54:00
7:48 PM,57.2,53.6,88,29.91,5.0,ESE,10.4,-,0.02,Rain,Light Rain,120,2013-11-27 00:48:00
7:49 PM,57.0,54.0,89,29.91,5.0,SE,11.5,-,0.02,Rain,Light Rain,130,2013-11-27 00:49:00
7:56 PM,57.2,53.6,88,29.89,5.0,ESE,13.8,-,0.01,Rain,Light Rain,120,2013-11-27 00:56:00
8:54 PM,59.0,55.9,90,29.83,4.0,SE,18.4,24.2,0.10,Rain,Light Rain,130,2013-11-27 01:54:00
9:54 PM,61.0,57.9,90,29.75,4.0,SE,20.7,32.2,0.03,Rain,Light Rain,140,2013-11-27 02:54:00
10:54 PM,63.0,60.1,90,29.68,6.0,SSE,21.9,33.4,0.05,Rain,Light Rain,150,2013-11-27 03:54:00
11:54 PM,64.0,61.0,90,29.61,2.5,SSE,18.4,32.2,0.09,Rain,Rain,160,2013-11-27 04:54:00